Regional Weather Roundup
Issued by NWS

Home | Current Version | Previous Version | Graphics & Text | Print | Product List | Glossary On
Versions: 1 2 3 4 5 6 7 8 9 10 11 12 13 14 15 16 17 18 19 20 21 22 23 24 25 26 27 28 29 30 31 32 33 34 35 36 37 38 39 40 41 42 43 44 45 46 47 48 49 50
000
ASUS43 KOAX 180102
RWRNE

WEATHER ROUNDUP FOR NEBRASKA
NATIONAL WEATHER SERVICE OMAHA NE
700 PM CST WED JAN 17 2018

NOTES: SATELLITE DATA IS BEING USED TO AUGMENT CLOUD COVER ABOVE
       12000 FEET.
       "FAIR" INDICATES FEW OR NO CLOUDS BELOW 12,000 FEET WITH NO
       SIGNIFICANT WEATHER AND/OR OBSTRUCTIONS TO VISIBILITY.


NEZ001>004-019>022-054>056-180200-
NEBRASKA PANHANDLE

CITY           SKY/WX    TMP DP  RH WIND       PRES   REMARKS
SCOTTSBLUFF    CLEAR     26  17  68 E3        30.24F
ALLIANCE       PTCLDY    22  19  89 W6        30.23F WCI  14
CHADRON        CLEAR     29  22  75 W5        30.22S WCI  24
GORDON         FAIR      28  20  72 W5        30.21F WCI  23
KIMBALL        PTCLDY    32  25  73 N6        30.25S WCI  27
SIDNEY         PTCLDY    22  16  78 NW3       30.25F
$$

NEZ057>060-069>072-079>082-180200-
SOUTHWEST NEBRASKA

CITY           SKY/WX    TMP DP  RH WIND       PRES   REMARKS
NORTH PLATTE   MOCLDY    25  16  68 E3        30.25F
IMPERIAL       PTCLDY    31  18  58 NW6       30.26R WCI  25
LEXINGTON      CLOUDY    30  16  55 SW6       30.29R WCI  24
MCCOOK         MOCLDY    30  19  63 S6        30.28S WCI  24
OGALLALA       CLEAR     31  23  71 NW6       30.25S WCI  25
$$

NEZ005>010-023>029-035>040-094-180200-
NORTH CENTRAL NEBRASKA

CITY           SKY/WX    TMP DP  RH WIND       PRES   REMARKS
VALENTINE      CLEAR     30  24  78 W6        30.21S WCI  24
AINSWORTH      CLEAR     29  23  79 W9        30.20F WCI  20
BROKEN BOW     MOCLDY    28  16  60 CALM      30.25S
O`NEILL        PTCLDY    28  20  72 SW8       30.21F WCI  20
ORD            MOCLDY    26  17  68 SW10      30.25S WCI  16
THEDFORD       CLEAR     29  22  75 W5        30.23S WCI  23
$$

NEZ041-046>049-061>064-073>077-083>087-180200-
SOUTH CENTRAL NEBRASKA

CITY           SKY/WX    TMP DP  RH WIND       PRES   REMARKS
GRAND ISLAND   CLOUDY    25  16  68 SW10      30.30S WCI  15
AURORA         CLOUDY    24  13  65 SW7       30.31R WCI  15
HASTINGS       CLOUDY    28  13  53 SW9       30.31S WCI  19
HEBRON         CLOUDY    22  15  72 S6        30.37S WCI  15
HOLDREGE       CLOUDY    27  16  62 S8        30.30S WCI  19
KEARNEY        CLOUDY    25  15  66 SW12      30.30S WCI  14
YORK           CLEAR     23  16  74 S9        30.32F WCI  13
$$

NEZ011>018-030>034-042>045-180200-
NORTHEAST NEBRASKA

CITY           SKY/WX    TMP DP  RH WIND       PRES   REMARKS
NORFOLK        CLOUDY    25  16  68 SW14      30.25R WCI  13
ALBION         CLOUDY    25  17  70 S5        30.27S WCI  19
BLAIR          CLOUDY    23  15  70 S15       30.31F WCI  10
COLUMBUS       CLOUDY    26  16  65 SW9       30.31S WCI  17
FREMONT        CLOUDY    25  14  61 S8G16     30.33S WCI  17
TEKAMAH        CLOUDY    24  13  62 S13       30.32S WCI  12
WAYNE          CLOUDY    26  16  66 SW13      30.26R WCI  15
$$

NEZ050>053-065>068-078-088>093-180200-
SOUTHEAST NEBRASKA

CITY           SKY/WX    TMP DP  RH WIND       PRES   REMARKS
LINCOLN        CLOUDY    20  12  71 S10       30.37F WCI   9
OMAHA EPPLEY   CLOUDY    22  11  62 S15       30.36S WCI   9
BEATRICE       CLOUDY    21  13  70 S8        30.39S WCI  12
FALLS CITY     CLOUDY    22  10  60 S7        30.42F WCI  13
NEBRASKA CITY  CLOUDY    19  11  72 SW10      30.38F WCI   7
PLATTSMOUTH    CLOUDY    21  11  65 S10       30.37S WCI   9
$$

NEZ044-045-051>053-067-180200-
OMAHA AREA

CITY           SKY/WX    TMP DP  RH WIND       PRES   REMARKS
OMAHA EPPLEY   CLOUDY    22  11  62 S15       30.36S WCI   9
BLAIR          CLOUDY    23  15  70 S15       30.31F WCI  10
FREMONT        CLOUDY    25  14  61 S8G16     30.33S WCI  17
MILLARD        CLOUDY    23  13  65 S7        30.37S WCI  15
OFFUTT AFB     CLOUDY    20   9  62 S8        30.37F WCI  10
PLATTSMOUTH    CLOUDY    21  11  65 S10       30.37S WCI   9
WAHOO          FAIR      24  13  64 S9        30.34F WCI  14
$$



USA.gov is the U.S. government's official web portal to all federal, state and local government web resources and services.